Tracking 26544 objects as of 9-Dec-2022
HD Live streaming from Space Station
objects crossing your sky now

STARLINK-4429

Track STARLINK-4429 now!
10-day predictions
STARLINK-4429 is classified as:


NORAD ID: 53495
Int'l Code: 2022-099AG
Perigee: 568.1 km
Apogee: 572.2 km
Inclination: 97.7 °
Period: 95.9 minutes
Semi major axis: 6941 km
RCS: Unknown
Launch date: August 12, 2022
Source: United States (US)
Launch site: AIR FORCE WESTERN TEST RANGE (AFWTR)
aabbcc
Your satellite tracking list
Your tracking list is empty




NASA's NSSDC Master Catalog

Two Line Element Set (TLE):
1 53495U 22099AG  22342.60263595  .00003022  00000-0  23974-3 0  9992
2 53495  97.6555 101.4203 0002920  18.1563 341.9765 15.01261721 17888
Source of the keplerian elements: AFSPC